Weather History for KTCM - November, 2011

Change the Weather History Date:

Wednesday, November 30, 2011

  Actual Average Record
Temperature  
Mean Temperature 37 °F -  
Max Temperature 44 °F 46 °F 57 °F (2012)
Min Temperature 27 °F 33 °F 14 °F (2014)
Degree Days  
Heating Degree Days 28    
Moisture  
Dew Point 37 °F    
Average Humidity 93    
Maximum Humidity 100    
Minimum Humidity 81    
Precipitation  
Precipitation 0.00 in - - ()
Sea Level Pressure  
Sea Level Pressure 30.62 in    
Wind  
Wind Speed 4 mph (ENE)    
Max Wind Speed 10 mph    
Max Gust Speed -    
Visibility 8 miles    
Events Rain    
Averages and records for this station are not official NWS values.
T = Trace of Precipitation, MM = Missing Value Source: NWS Daily Summary

Daily Weather History Graph

Daily Weather History Graph

Search for Another Location

Airport or City:

Trip Planner

Search our weather history database for the weather conditions in past years. The results will help you decide how hot, cold, wet, or windy it might be!

Date:

Astronomy

Nov. 30, 2011 Rise Set
Actual Time 7:34 AM PST 4:22 PM PST
Civil Twilight 6:59 AM PST 4:57 PM PST
Nautical Twilight 6:21 AM PST 5:35 PM PST
Astronomical Twilight 5:44 AM PST 6:12 PM PST
Moon 11:42 AM PST (11/30) 10:39 PM PST (11/30)
Length of Visible Light 9h 58m
Length of Day
8h 48m
Waxing Crescent, 34% of the Moon is Illuminated
Nov 30
Waxing Crescent
Dec 2
First Quarter
Dec 10
Full
Dec 17
Last Quarter
Dec 24
New

Hourly Weather History & Observations

Time (PST) Temp. Windchill Dew Point Humidity Pressure Visibility Wind Dir Wind Speed Gust Speed Precip Events Conditions
12:05 AM 42.8 °F 37.0 °F 41.0 °F 93% 30.24 in 10.0 mi South 10.4 mph - N/A   Scattered Clouds
12:55 AM 41.4 °F 36.8 °F 40.8 °F 98% 30.27 in 10.0 mi South 6.9 mph - N/A   Partly Cloudy
1:29 AM 41.0 °F 36.4 °F 41.0 °F 100% 30.29 in 10.0 mi South 6.9 mph - N/A   Mostly Cloudy
1:53 AM 42.8 °F 40.1 °F 41.0 °F 93% 30.30 in 10.0 mi South 4.6 mph - N/A Rain Light Rain
1:55 AM 41.9 °F 38.2 °F 41.7 °F 99% 30.30 in 10.0 mi South 5.8 mph - 0.00 in   Light Drizzle
2:04 AM 42.8 °F 40.1 °F 41.0 °F 93% 30.30 in 10.0 mi SSW 4.6 mph - N/A   Mostly Cloudy
2:55 AM 42.4 °F - 41.9 °F 98% 30.35 in 10.0 mi Calm Calm - 0.00 in   Mostly Cloudy
3:17 AM 42.8 °F - 42.8 °F 100% 30.36 in 10.0 mi Calm Calm - N/A   Overcast
3:55 AM 41.5 °F - 41.4 °F 99% 30.38 in 10.0 mi Calm Calm - N/A   Overcast
4:50 AM 42.8 °F - 42.8 °F 100% 30.42 in 10.0 mi Calm Calm - N/A   Mostly Cloudy
4:55 AM 42.4 °F - 42.3 °F 99% 30.42 in 10.0 mi Calm Calm - N/A   Mostly Cloudy
5:30 AM 42.8 °F 41.1 °F 42.8 °F 100% 30.47 in 10.0 mi North 3.5 mph - N/A   Mostly Cloudy
5:32 AM 42.8 °F 41.1 °F 42.8 °F 100% 30.46 in 10.0 mi North 3.5 mph - N/A   Mostly Cloudy
5:36 AM 42.8 °F 41.1 °F 42.8 °F 100% 30.46 in 10.0 mi NNE 3.5 mph - N/A   Mostly Cloudy
5:37 AM 42.8 °F - 42.8 °F 100% 30.46 in 10.0 mi Calm Calm - N/A   Mostly Cloudy
5:39 AM 42.8 °F 41.1 °F 42.8 °F 100% 30.46 in 10.0 mi North 3.5 mph - N/A   Mostly Cloudy
5:55 AM 42.8 °F 41.1 °F 42.6 °F 99% 30.47 in 10.0 mi NNE 3.5 mph - 0.00 in Rain Light Rain
6:07 AM 42.8 °F - 42.8 °F 100% 30.47 in 10.0 mi Calm Calm - N/A   Mostly Cloudy
6:44 AM 42.8 °F - 42.8 °F 100% 30.49 in 10.0 mi Calm Calm - N/A   Scattered Clouds
6:55 AM 42.8 °F - 42.1 °F 97% 30.49 in 10.0 mi Calm Calm - 0.00 in   Light Drizzle
6:58 AM 42.8 °F 41.1 °F 42.8 °F 100% 30.50 in 10.0 mi Variable 3.5 mph - N/A   Scattered Clouds
7:55 AM 42.6 °F 39.0 °F 41.0 °F 94% 30.53 in 10.0 mi NE 5.8 mph - 0.00 in   Mostly Cloudy
8:55 AM 43.2 °F 38.4 °F 39.6 °F 87% 30.56 in 10.0 mi NNE 8.1 mph - N/A   Partly Cloudy
9:55 AM 44.4 °F 41.2 °F 40.3 °F 85% 30.60 in 10.0 mi ENE 5.8 mph - N/A   Scattered Clouds
10:55 AM 44.4 °F 40.5 °F 39.9 °F 84% 30.62 in 10.0 mi NE 6.9 mph - N/A   Overcast
11:17 AM 44.6 °F 41.4 °F 39.2 °F 81% 30.64 in 10.0 mi NNE 5.8 mph - N/A   Overcast
11:18 AM 44.6 °F 42.2 °F 39.2 °F 81% 30.64 in 10.0 mi NE 4.6 mph - N/A   Overcast
11:19 AM 44.6 °F 42.2 °F 39.2 °F 81% 30.64 in 10.0 mi NE 4.6 mph - N/A   Overcast
11:55 AM 44.4 °F 42.9 °F 39.7 °F 84% 30.65 in 10.0 mi Variable 3.5 mph - N/A   Overcast
11:56 AM 44.6 °F 42.2 °F 39.2 °F 81% 30.65 in 10.0 mi Variable 4.6 mph - N/A   Overcast
12:28 PM 44.6 °F 43.1 °F 39.2 °F 81% 30.66 in 10.0 mi Variable 3.5 mph - N/A   Overcast
12:55 PM 44.6 °F 43.1 °F 39.6 °F 82% 30.68 in 10.0 mi Variable 3.5 mph - N/A   Overcast
1:55 PM 44.8 °F 43.3 °F 39.7 °F 82% 30.69 in 10.0 mi NE 3.5 mph - N/A   Mostly Cloudy
2:38 PM 44.6 °F 41.4 °F 39.2 °F 81% 30.69 in 10.0 mi Variable 5.8 mph - N/A   Mostly Cloudy
2:39 PM 44.6 °F 40.7 °F 39.2 °F 81% 30.69 in 10.0 mi Variable 6.9 mph - N/A   Mostly Cloudy
2:41 PM 44.6 °F 42.2 °F 39.2 °F 81% 30.69 in 10.0 mi Variable 4.6 mph - N/A   Mostly Cloudy
2:46 PM 44.6 °F 41.4 °F 39.2 °F 81% 30.69 in 10.0 mi Variable 5.8 mph - N/A   Mostly Cloudy
2:55 PM 44.6 °F 43.1 °F 39.4 °F 82% 30.69 in 10.0 mi NE 3.5 mph - N/A   Mostly Cloudy
3:00 PM 44.6 °F 43.1 °F 39.2 °F 81% 30.69 in 10.0 mi Variable 3.5 mph - N/A   Mostly Cloudy
3:55 PM 43.5 °F 41.9 °F 38.7 °F 83% 30.71 in 10.0 mi NE 3.5 mph - N/A   Clear
4:14 PM 42.8 °F - 39.2 °F 87% 30.70 in 10.0 mi Calm Calm - N/A   Mostly Cloudy
4:17 PM 42.8 °F - 39.2 °F 87% 30.70 in 10.0 mi Calm Calm - N/A   Scattered Clouds
4:55 PM 41.2 °F 39.2 °F 37.2 °F 86% 30.72 in 10.0 mi NNE 3.5 mph - N/A   Clear
5:55 PM 41.4 °F 38.4 °F 35.8 °F 81% 30.74 in 10.0 mi Variable 4.6 mph - N/A   Clear
6:55 PM 39.4 °F - 35.6 °F 86% 30.75 in 10.0 mi Calm Calm - N/A   Clear
7:55 PM 33.1 °F - 31.5 °F 94% 30.76 in 10.0 mi Calm Calm - N/A   Clear
8:55 PM 32.4 °F - 32.2 °F 99% 30.77 in 10.0 mi Calm Calm - N/A   Scattered Clouds
9:01 PM 32.0 °F - 32.0 °F 100% 30.77 in 10.0 mi Calm Calm - N/A   Mostly Cloudy
9:25 PM 32.0 °F - 32.0 °F 100% 30.77 in 10.0 mi Calm Calm - N/A   Scattered Clouds
9:55 PM 30.9 °F - 30.7 °F 99% 30.77 in 5.0 mi Calm Calm - N/A   Partly Cloudy
10:46 PM 32.0 °F - 32.0 °F 100% 30.80 in 2.5 mi Calm Calm - N/A   Clear
10:48 PM 32.0 °F - 32.0 °F 100% 30.80 in 2.0 mi Calm Calm - N/A   Clear
10:50 PM 32.0 °F 28.7 °F 30.2 °F 93% 30.80 in 1.8 mi SE 3.5 mph - N/A   Clear
10:51 PM 30.2 °F 26.7 °F 30.2 °F 100% 30.80 in 1.5 mi SE 3.5 mph - N/A   Clear
10:52 PM 30.2 °F 26.7 °F 30.2 °F 100% 30.80 in 1.5 mi SE 3.5 mph - N/A   Clear
10:54 PM 30.2 °F - 30.2 °F 100% 30.80 in 1.5 mi Calm Calm - N/A   Clear
10:55 PM 30.4 °F - 30.2 °F 99% 30.80 in 1.8 mi Calm Calm - N/A   Clear
10:56 PM 30.2 °F - 30.2 °F 100% 30.80 in 2.0 mi Calm Calm - N/A   Clear
10:59 PM 30.2 °F - 30.2 °F 100% 30.80 in 2.5 mi Calm Calm - N/A   Clear
11:01 PM 30.2 °F - 30.2 °F 100% 30.80 in 3.0 mi Calm Calm - N/A   Clear
11:05 PM 30.2 °F - 30.2 °F 100% 30.80 in 2.5 mi Calm Calm - N/A   Clear
11:10 PM 30.2 °F - 28.4 °F 93% 30.80 in 3.0 mi Calm Calm - N/A   Clear
11:17 PM 30.2 °F - 30.2 °F 100% 30.80 in 2.5 mi Calm Calm - N/A   Clear
11:20 PM 30.2 °F - 30.2 °F 100% 30.80 in 2.0 mi Calm Calm - N/A   Clear
11:23 PM 30.2 °F - 28.4 °F 93% 30.80 in 2.5 mi Calm Calm - N/A   Clear
11:25 PM 30.2 °F - 30.2 °F 100% 30.80 in 3.0 mi Calm Calm - N/A   Clear
11:55 PM 27.7 °F - 27.1 °F 98% 30.82 in 9.0 mi Calm Calm - N/A   Clear